www.pogodaiklimat.ru
ПОГОДА в Устке

Архив погоды в Устке (Польша)

Время
(UTC), дата
16 21.05
17 21.05
18 21.05
19 21.05
20 21.05
21 21.05
22 21.05
23 21.05
00 22.05
01 22.05
02 22.05
03 22.05
04 22.05
05 22.05
06 22.05
07 22.05
08 22.05
09 22.05
10 22.05
11 22.05
12 22.05
13 22.05
14 22.05
15 22.05
16 22.05
17 22.05
18 22.05
19 22.05
20 22.05
21 22.05
22 22.05
23 22.05
00 23.05
01 23.05
02 23.05
03 23.05
04 23.05
05 23.05
06 23.05
07 23.05
08 23.05
09 23.05
10 23.05
11 23.05
12 23.05
13 23.05
14 23.05
15 23.05
16 23.05
17 23.05
18 23.05
19 23.05
20 23.05
21 23.05
22 23.05
23 23.05
00 24.05
01 24.05
02 24.05
03 24.05
04 24.05
05 24.05
06 24.05
07 24.05
08 24.05
09 24.05
10 24.05
11 24.05
12 24.05
13 24.05
14 24.05
15 24.05
16 24.05
17 24.05
18 24.05
19 24.05
20 24.05
21 24.05
22 24.05
23 24.05
00 25.05
01 25.05
02 25.05
03 25.05
04 25.05
05 25.05
06 25.05
07 25.05
08 25.05
09 25.05
10 25.05
11 25.05
12 25.05
13 25.05
14 25.05
15 25.05
16 25.05
17 25.05
18 25.05
19 25.05
20 25.05
21 25.05
22 25.05
23 25.05
00 26.05
01 26.05
02 26.05
03 26.05
04 26.05
05 26.05
06 26.05
07 26.05
08 26.05
09 26.05
10 26.05
11 26.05
12 26.05
13 26.05
14 26.05
15 26.05
16 26.05
17 26.05
18 26.05
19 26.05
20 26.05
21 26.05
22 26.05
23 26.05
00 27.05
01 27.05
02 27.05
03 27.05
04 27.05
05 27.05
06 27.05
07 27.05
08 27.05
09 27.05
10 27.05
11 27.05
12 27.05
13 27.05
14 27.05
15 27.05
16 27.05
17 27.05
18 27.05
19 27.05
20 27.05
21 27.05
22 27.05
23 27.05
00 28.05
01 28.05
02 28.05
03 28.05
04 28.05
05 28.05
06 28.05
07 28.05
08 28.05
09 28.05
10 28.05
11 28.05
12 28.05
13 28.05
14 28.05
15 28.05
16 28.05
Ветер
(напр.,м/с)
Видим. Явления Облачность Т
(С)
Тd
(С)
f
(%)
Тe
(С)
Тes
(С)
Комфортность P
(гПа)
Po
(гПа)
Тmin
(С)
Tmax
(С)
R
(мм)
R24
(мм)
S
(см)
В 6 14 км 3/1 1000 м
[Cb calv Ci fib]
+11.9 +10.5 91 +9 +10 1014.3 1012.9
СВ 8 14 км 3/1 1000 м
[Cb calv Ci fib]
+11.4 +10.1 92 +8 +8 1014.0 1012.6
В 6 15 км {гроза, ливн. дождь} 4/1 1000 м
[Cu med, cong Ci fib]
+10.9 +10.0 94 +8 +8 1014.0 1012.6 +10.9 +13.4 0.0
В 5 10 км 3/0
[Ci sp]
+10.1 +9.6 97 +7 +7 1014.3 1012.9
СВ 5 10 км 3/0
[Ci sp]
+10.1 +9.8 98 +7 +7 1014.2 1012.8
В 5 5000 м дымка н/о +9.8 +9.5 98 +6 +6 1014.2 1012.8
В 5 7000 м дымка н/о +9.8 +9.5 98 +6 +6 1013.8 1012.4
СВ 4 2700 м дымка н/о +9.2 +9.1 99 +6 +6 1013.5 1012.1
В 3 3100 м дымка н/о +8.9 +8.8 99 +6 +6 1013.3 1011.9
СВ 4 5000 м дымка н/о +9.6 +9.5 99 +7 +7 1012.8 1011.4
В 3 3300 м дымка н/о +9.4 +9.3 99 +7 +7 1012.7 1011.3
В 3 20 км н/о +14.7 +14.1 96 +14 +14 1012.5 1011.1
В 4 {8} 20 км н/о +15.9 +13.7 87 +15 +15 1012.7 1011.3
В 4 20 км ясно +17.6 +14.3 81 +17 +19 1012.8 1011.4
В 3 {8} 20 км 1/0
[Ci fib]
+19.8 +14.4 71 +22 +26 комфорт 1012.7 1011.3 +8.7 +19.8 0.0
СВ 5 17 км 1/0
[Ci fib]
+13.9 +10.9 82 +12 +16 1012.7 1011.3
СВ 5 16 км 3/0
[Ci fib]
+13.7 +10.3 80 +12 +17 1012.6 1011.2
СВ 5 16 км 3/0
[Ci fib]
+14.2 +10.6 79 +13 +19 1012.5 1011.1
СВ 6-11 {11} 15 км 3/0
[Ci fib]
+13.4 +10.4 82 +11 +17 1012.1 1010.7
В 7 20 км 3/1 1500 м
[Sc Ci fib]
+14.2 +10.6 79 +12 +16 1011.8 1010.4
В 7 {11} 15 км 3/0
[Ci fib]
+14.2 +10.6 79 +12 +16 1011.5 1010.1
СВ 8 14 км 3/1 1500 м
[Cu hum Ci fib]
+13.7 +10.3 80 +11 +13 1011.3 1009.9
В 5 {14} 14 км 3/1 1500 м
[Cu hum Ci fib]
+14.5 +10.5 77 +13 +17 1010.9 1009.5
СВ 8 {14} 16 км 1/1 1500 м
[Cu hum Ci fib]
+12.8 +10.0 83 +10 +11 1010.6 1009.2
В 7 18 км 1/0
[Ac cast]
+12.8 +10.0 83 +10 +11 1010.3 1008.9
В 6 16 км 3/0
[Ac cast Ci fib]
+12.2 +9.8 85 +9 +10 1010.2 1008.8
СВ 5 {14} 16 км 3/1 1500 м
[Cu hum Ac trans Ci fib]
+11.6 +9.5 87 +9 +9 1010.4 1009.0 +11.6 +20.6
В 6 11 км 1/1 1500 м
[Cu hum Ac trans]
+11.3 +9.9 91 +8 +8 1010.8 1009.4
СВ 4 8000 м дымка 1/1 1500 м
[Cu med, cong Ac trans]
+10.1 +9.2 94 +7 +7 1010.8 1009.4
В 3 6000 м дымка н/о +12.9 +12.0 94 +11 +11 1011.2 1009.8
В 2 20 км н/о +17.5 +14.0 80 +18 +18 1011.0 1009.6
В 2 6000 м дымка н/о +11.8 +10.2 90 +11 +11 1010.9 1009.5
СВ 3 3600 м дымка н/о +11.6 +10.7 94 +10 +10 1010.6 1009.2
В 3 2900 м дымка н/о +13.5 +12.7 95 +12 +12 1010.7 1009.3
Ю 1 4000 м дымка н/о +10.9 +10.0 94 +10 +10 1011.0 1009.6
В 2 7000 м дымка н/о +11.9 +11.4 97 +11 +11 1010.9 1009.5
СВ 3 2500 м дымка н/о +11.2 +10.6 96 +9 +9 1011.1 1009.7
ЮВ 2 8000 м дымка 6/1 1000 м
[Cu med, cong Ac trans Ci sp]
+12.9 +11.1 89 +12 +14 1011.2 1009.8
ЮВ 5-10 {10} 20 км 6/1 1000 м
[Cu med, cong Ac trans Ci sp]
+19.6 +14.2 71 +21 +23 комфорт 1011.7 1010.3 +9.9 +19.6
Ю 3 20 км 8/1 1000 м
[Cu med, cong Ac trans Ci sp]
+20.0 +14.6 71 +22 +26 комфорт 1012.0 1010.6
ЮВ 3 20 км 8/5 1000 м
[Sc Ci sp]
+21.5 +15.3 68 +25 +29 комфорт 1012.1 1010.7
ЮВ 4 {9} 20 км 8/5 1000 м
[Cu med, cong Ci sp]
+22.9 +14.2 58 +26 +30 жарко 1012.2 1010.8
ЮВ 6-11 {14} 20 км 9/6 1000 м
[Cb calv Ac trans]
+23.6 +12.9 51 +26 +27 жарко 1012.3 1011.0
ЮВ 5-11 {11} 20 км в посл. час гроза 9/9 1000 м
[Cb cap]
+21.9 +13.3 58 +25 +25 комфорт 1012.8 1011.4
ЮВ 5-10 {14} 20 км {гроза} 10/6 1500 м
[Sc Ac As]
+22.1 +13.4 58 +25 +26 комфорт 1012.9 1011.5
ЮВ 5 {12} 20 км 9/5 1500 м
[Sc Ac trans]
+21.0 +14.2 65 +24 +26 комфорт 1013.3 1011.9
ЮВ 5 {11} 20 км 9/5 1500 м
[Sc Ac trans]
+20.5 +14.6 69 +23 +24 комфорт 1013.4 1012.0
Ю 4 {12} 19 км слаб. ливневой дождь 9/6 600 м
[Cb calv Ac As]
+19.4 +15.7 79 +21 +22 комфорт 1013.7 1012.3
Ю 4 20 км в посл. час ливневой дождь 10/8 600 м
[St Ac As]
+20.1 +15.3 74 +23 +23 комфорт 1014.0 1012.6
ЮЗ 5 20 км слаб. ливневой дождь 9/9 300 м
[Cb calv]
+15.7 +14.2 91 +14 +15 1015.1 1013.7
ЮЗ 4 {12} 20 км слаб. ливневой дождь 9/9 300 м
[Cb calv]
+15.2 +14.1 93 +14 +14 1015.6 1014.2 +12.3 +24.4 0.0
ЮЗ 4 20 км в посл. час ливневой дождь 9/9 300 м
[Cb calv]
+14.6 +13.8 95 +13 +13 1016.1 1014.7
ЮЗ 4 20 км 9/9 300 м
[Sc]
+14.7 +13.6 93 +13 +13 1017.1 1015.7
ЮЗ 3 20 км н/о +14.7 +13.4 92 +14 +14 1017.5 1016.1
Ю 3 15 км н/о +14.0 +13.2 95 +13 +13 1018.1 1016.7
Ю 2 14 км н/о +13.5 +12.9 96 +13 +13 1018.6 1017.2
Ю 3 11 км н/о +13.3 +12.7 96 +12 +12 1018.8 1017.4 0.0
Ю 3 13 км н/о +13.2 +12.6 96 +12 +12 1019.3 1017.9
Ю 3 11 км н/о +13.1 +12.5 96 +12 +12 1019.7 1018.3
Ю 2 11 км н/о +12.5 +12.0 97 +11 +11 1020.1 1018.7
Ю 2 8000 м дымка н/о +13.0 +12.4 96 +12 +12 1020.2 1018.8
Ю 1 12 км 4/0
[Ci fib]
+14.8 +13.5 92 +15 +18 1020.5 1019.1
З 3 14 км 4/1 200 м
[St Ci fib]
+15.8 +13.3 85 +15 +19 1020.7 1019.3 +12.5 +15.8 0.0 0.0
З 2 14 км 4/0
[Ci fib]
+15.5 +13.0 85 +15 +22 1021.0 1019.6
З 3 13 км 4/0
[Ac trans Ci fib]
+15.2 +12.9 86 +14 +22 1021.5 1020.1
СЗ 2 13 км 4/0
[Ac trans Ci fib]
+15.0 +12.5 85 +15 +27 опасность простуды 1022.0 1020.6
С 2 18 км 8/0
[Ac trans Cs]
+15.1 +12.4 84 +15 +27 опасность простуды 1022.3 1020.9
С 2 15 км 9/0
[Ac trans Cs]
+15.6 +12.9 84 +15 +26 опасность простуды 1022.3 1020.9
СВ 2 15 км 8/0
[Ac trans Cs]
+16.2 +13.3 83 +16 +27 1022.0 1020.6
СВ 3 18 км 8/3
[Sc Ac trans Cs]
+16.0 +13.5 85 +16 +20 1021.9 1020.5
СВ 4 15 км 6/0
[Cs]
+16.2 +14.0 87 +15 +21 1021.7 1020.3
СВ 4 14 км 6/0
[Ac trans Cs]
+14.9 +12.8 87 +14 +18 1021.4 1020.0
СВ 3 11 км 4/0
[Ci fib]
+15.3 +13.0 86 +15 +18 1020.8 1019.4
СВ 4 8000 м дымка 4/0
[Ci fib]
+14.4 +12.8 90 +13 +14 1020.6 1019.2
СВ 3 7000 м дымка 5/3 1500 м
[Sc Ci sp]
+13.6 +12.5 93 +12 +13 1020.7 1019.3 +13.6 +16.6
СВ 3 6000 м дымка 6/3 1500 м
[Sc Ci sp]
+13.0 +12.2 95 +12 +12 1020.4 1019.0
СВ 3 4000 м дымка 8/0
[Cs]
+12.1 +11.6 97 +10 +10 1020.4 1019.0
В 2 5000 м дымка н/о +12.4 +11.9 97 +11 +11 1021.1 1019.7
СВ 5 11 км в посл. час дождь н/о +12.8 +11.9 94 +10 +10 1020.2 1018.8
В 6 3000 м дымка н/о +11.5 +11.0 97 +8 +8 1019.9 1018.5
В 5 300 м туман н/о +10.2 +9.9 98 +7 +7 1019.4 1018.0 0.0
В 5 200 м туман н/о +9.9 +9.7 99 +7 +7 1019.1 1017.7
СВ 2 200 м туман н/о +9.8 +9.8 100 +8 +8 1019.4 1018.0
СВ 2 300 м туман н/о +10.0 +10.0 100 +8 +8 1019.4 1018.0
В 2 <100 м туман н/о +10.0 +10.0 100 +8 +8 1019.5 1018.1
ЮВ 2 3000 м в посл. час туман 1/0
[Ci fib]
+11.4 +11.4 100 +10 +12 1019.0 1017.6
В 2 10 км 4/0
[Ac trans]
+12.4 +12.2 99 +11 +15 1019.1 1017.7 +9.7 +15.0 0.0 0.0
СВ 4 10 км 4/0
[Ac trans]
+12.5 +11.2 92 +10 +14 1019.2 1017.8
СВ 4 17 км 1/1 600 м
[Cu hum]
+12.8 +11.0 89 +11 +17 1019.3 1017.9
СВ 4 17 км 1/0
[Ac trans Ci fib]
+14.1 +11.8 86 +13 +21 1019.3 1017.9
СВ 5 15 км 4/3 600 м
[Cu med, cong Ac trans Ci sp]
+14.0 +11.7 86 +12 +17 1019.5 1018.1
СВ 4 12 км 6/5 1000 м
[Cu med, cong Ac trans Ci sp]
+13.9 +11.8 87 +12 +17 1019.5 1018.1
СВ 4 10 км 6/6 600 м
[Cu med, cong Ci fib]
+14.2 +11.9 86 +13 +17 1019.3 1017.9
СВ 4 12 км 8/8 600 м
[Cb cap Ci fib]
+15.1 +13.0 87 +14 +16 1019.1 1017.7
СВ 4 12 км 9/9 600 м
[Cb calv]
+14.4 +11.5 83 +13 +14 1018.6 1017.2
СВ 5 7000 м гроза без осадков {ливн. дождь} 9/9 600 м
[Cb cap]
+13.5 +12.2 92 +11 +12 1018.7 1017.3
З 3 6000 м в посл. час гроза 8/8 600 м
[Cb calv]
+13.4 +12.3 93 +12 +13 1018.6 1017.2
СЗ 1 8000 м дымка 6/6 300 м
[Cb calv Ci sp]
+13.8 +13.0 95 +14 +15 1018.6 1017.2
СЗ 1 8000 м дымка {гроза, ливн. дождь} 5/3 300 м
[Cu med, cong Cs]
+13.6 +12.7 94 +14 +14 1018.8 1017.4 +11.6 +15.2 2
Ю 2 8000 м дымка 8/1 300 м
[Cu med, cong Ac trans Cs]
+14.7 +13.7 94 +14 +14 1019.2 1017.8
В 1 4000 м дымка 6/1 300 м
[Cu med, cong Ac trans Cs]
+12.4 +11.8 96 +12 +12 1019.3 1017.9
ЮВ 2 5000 м дымка н/о +13.1 +12.2 94 +12 +12 1019.4 1018.0
ЮВ 1 4300 м дымка н/о +12.0 +11.4 96 +12 +12 1019.2 1017.8
В 1 6000 м дымка н/о +12.1 +11.6 97 +12 +12 1019.2 1017.8
ЮВ 2 11 км н/о +12.6 +12.3 98 +12 +12 1019.0 1017.6
ЮВ 3 13 км н/о +15.2 +14.6 96 +14 +14 1018.9 1017.5
ЮВ 4 13 км слаб. ливневой дождь н/о +17.0 +15.5 91 +17 +17 1019.1 1017.7
ЮВ 4 16 км в посл. час дождь н/о +16.5 +15.4 93 +16 +16 1018.8 1017.4
Ю 5 14 км н/о +16.2 +15.1 93 +15 +15 1018.9 1017.5
Ю 5 17 км 9/9 1000 м
[Cu med, cong]
+17.1 +15.3 89 +16 +16 1018.8 1017.4
ЮВ 3 20 км 9/9 1000 м
[Cu med, cong]
+18.1 +15.5 85 +18 +19 1019.8 1018.4 +11.3 +18.1 0.5 2.2
В 3 20 км 10/10 1000 м
[Sc]
+17.4 +15.2 87 +17 +17 1020.4 1019.0
В 4 17 км гроза, ливневой дождь 10/10 1000 м
[Cb cap]
+16.5 +15.2 92 +16 +16 1020.8 1019.4
СВ 2 4000 м слаб. ливневой дождь, в посл. час гроза 9/9 1000 м
[Cb cap]
+16.1 +14.3 89 +16 +18 1020.8 1019.4
В 2 20 км в посл. час ливневой дождь 9/6 1000 м
[Cb cap Ac trans]
+16.4 +15.3 93 +16 +20 1020.8 1019.4
В 3 17 км 8/4 1000 м
[Cb calv Ac cuf]
+18.5 +17.7 95 +19 +24 1020.7 1019.3
СВ 5 19 км {гроза, ливн. дождь} 8/4 1000 м
[Cb calv Ac cuf]
+17.2 +14.7 85 +17 +19 1020.3 1018.9 3
СВ 4 19 км 6/4 1000 м
[Cb calv Ac trans Ci sp]
+16.0 +13.7 86 +15 +20 1020.0 1018.6
В 6 20 км 6/3 1000 м
[Cb calv Ci sp]
+16.3 +14.0 86 +15 +18 1019.6 1018.2
СВ 4 20 км 6/5 1000 м
[Cb cap Ci sp]
+15.9 +13.0 83 +15 +17 1019.3 1017.9
СВ 6 20 км 6/5 1000 м
[Cb cap Ci sp]
+15.5 +12.6 83 +14 +15 1019.0 1017.6
ЮЗ 5-11 {11} 20 км гроза, ливневой дождь 9/9 600 м
[Cb cap]
+20.1 +14.9 72 +22 +22 комфорт 1020.2 1018.8
В 3 {11} 20 км в посл. час гроза {ливн. дождь} 9/9 300 м
[Cb calv]
+19.2 +15.5 79 +21 +21 комфорт 1019.4 1018.0 +14.2 +21.7 4
В 3 20 км 9/9 600 м
[Cb calv]
+17.9 +15.9 88 +18 +18 1020.3 1018.9
ЮЗ 5-11 {11} 20 км 9/6 300 м
[Cb calv Ac cast]
+18.7 +16.1 85 +19 +19 1020.8 1019.4
ЮВ 1 {11} 20 км н/о +15.9 +14.8 93 +17 +17 1020.7 1019.3
ЮВ 3 6000 м дождь н/о +17.3 +15.6 90 +17 +17 1020.6 1019.2
ЮВ 3 20 км в посл. час дождь н/о +17.3 +14.9 86 +17 +17 1020.2 1018.8
ЮВ 4 {11} 20 км н/о +17.9 +14.0 78 +18 +18 1019.8 1018.4 0.9
Ю 3 20 км н/о +17.4 +14.1 81 +17 +17 1019.6 1018.2
Ю 3 20 км н/о +16.8 +14.1 84 +17 +17 1019.4 1018.0
ЮВ 3 20 км н/о +16.6 +14.1 85 +16 +16 1019.7 1018.3
ЮВ 4 20 км н/о +17.2 +13.3 78 +17 +17 1019.7 1018.3
ЮВ 3 20 км 6/0
[Ac cast Ci sp]
+18.3 +13.6 74 +19 +20 1019.7 1018.3
ЮВ 3 20 км 6/0
[Ac trans Ci sp]
+19.4 +13.6 69 +21 +24 комфорт 1019.6 1018.2 +14.6 +19.4 0.9 4.5
Ю 3 20 км 6/0
[Ac trans Ci sp]
+21.2 +13.9 63 +24 +29 комфорт 1019.5 1018.1
ЮВ 4 20 км 8/0
[Ac trans Ci sp]
+21.6 +14.0 62 +24 +29 комфорт 1019.4 1018.0
Ю 3 20 км 8/0
[Ac trans Ci sp]
+22.9 +13.7 56 +26 +34 жарко 1019.1 1017.7
Ю 3 20 км 6/0
[Ac trans Ci sp]
+24.7 +12.6 47 +27 +37 жарко 1018.7 1017.3
СВ 3 20 км 6/1 600 м
[Cu med, cong Ci sp]
+20.0 +13.7 67 +22 +33 комфорт 1018.3 1016.9
СВ 4 20 км 8/3 600 м
[Cb calv Ac trans Ci sp]
+19.6 +12.6 64 +21 +26 комфорт 1017.8 1016.4
СЗ 2 19 км гроза, ливневой дождь 9/9 600 м
[Cb cap]
+17.9 +13.8 77 +18 +20 1017.5 1016.1
СВ 3 24 км в посл. час гроза {ливн. дождь} 9/6 600 м
[Cb calv Ci sp]
+16.4 +13.3 82 +16 +19 1016.9 1015.5
ЮВ 7-14 {14} 10 км гроза, ливневой дождь 9/9 600 м
[Cb cap]
+20.3 +13.3 64 +22 +22 комфорт 1017.1 1015.7
З 1 {10} 10 км гроза, ливневой дождь 9/6 600 м
[Cb calv Ci sp]
+17.4 +15.4 88 +18 +20 1016.5 1015.1
З 7 {12} 9000 м гроза, ливневой дождь 9/9 600 м
[Cb cap]
+15.2 +14.2 94 +13 +13 1018.3 1016.9
З 5 {14} 5000 м слаб. ливневой дождь, в посл. час гроза 9/9 600 м
[Cb cap]
+14.5 +13.9 96 +13 +13 1018.5 1017.1 +14.2 +26.0 16
З 2 10 км в посл. час ливневой дождь 9/9 600 м
[Cb calv]
+14.1 +13.5 96 +13 +13 1017.5 1016.1
ЮВ 3 11 км 9/6 600 м
[Cb calv Ac trans]
+15.2 +14.7 97 +14 +14 1018.6 1017.2
Ю 2 9000 м дымка н/о +15.4 +14.9 97 +15 +15 1017.8 1016.4
ЮВ 3 12 км н/о +15.2 +14.7 97 +14 +14 1017.4 1016.0
Ю 3 14 км слаб. дождь н/о +15.7 +15.1 96 +15 +15 1017.6 1016.2
В 2 4700 м дымка н/о +14.0 +13.7 98 +13 +13 1016.9 1015.5 0.3
В 3 16 км н/о +14.7 +14.2 97 +14 +14 1016.3 1014.9
ЮВ 4 20 км н/о +15.1 +13.5 90 +14 +14 1015.6 1014.2
В 2 20 км н/о +14.6 +13.1 91 +14 +14 1015.3 1013.9
ЮВ 3 20 км н/о +15.2 +12.7 85 +14 +14 1014.9 1013.5
ЮВ 4-9 {9} 30 км 3/0
[Ac trans]
+16.9 +11.4 70 +16 +18 1014.6 1013.2
ЮВ 4 {9} 30 км 3/0
[Ac trans]
+18.7 +11.7 64 +19 +22 1014.7 1013.3 +13.5 +18.7 0.3 16.6
Ю 4 25 км 3/0
[Ac trans Ci fib]
+21.1 +12.2 57 +23 +28 комфорт 1014.7 1013.3
Ю 4 25 км 1/0
[Ci fib]
+23.8 +12.7 50 +26 +33 жарко 1014.4 1013.1
ЮВ 5 25 км 1/0
[Ci fib]
+26.1 +8.1 32 +26 +33 жарко 1014.2 1012.9
Ю 5 {10} 30 км 3/1 1500 м
[Cb calv Ci fib]
+27.2 +7.1 28 +27 +34 жарко 1013.9 1012.6
Ю 5 {10} 30 км 3/3 1500 м
[Cb calv]
+27.9 +6.6 26 +27 +33 жарко 1013.6 1012.3
СЗ 3 {10} 30 км 6/6 1000 м
[Cb calv]
+19.1 +13.1 68 +20 +25 1014.0 1012.6
З 5 {15} 8000 м гроза, ливневой дождь 9/9 600 м
[Cb cap]
+15.5 +14.4 93 +14 +15 1015.4 1014.0
З 5 {11} 8000 м гроза, ливневой дождь 9/9 600 м
[Cb cap]
+14.7 +13.9 95 +13 +14 1015.7 1014.3
З 4 {15} 14 км в посл. час гроза {ливн. дождь} 9/9 600 м
[Cb cap]
+15.3 +14.7 96 +14 +15 1015.5 1014.1
ЮЗ 4 20 км в посл. час гроза {ливн. дождь} 9/9 600 м
[Cb cap]
+15.4 +14.6 95 +14 +15 1017.1 1015.7
Местоположение метеостанции Устка (Польша): широта 54.58 долгота 16.87 высота над уровнем моря 11 м.
В архиве по умолчанию представлена погода в Устке за последнюю неделю. Архивные данные за месяц целиком и за предыдущие месяцы, начиная с января 2011 года, Вы можете получить, выбрав интересующий диапазон дат из раскрывающегося списка и нажав кнопку "Найти!".
*Определитесь, кто Вы:
Внимание! Время в таблицах - всемирное. Для получения местного времени необходимо прибавить поправку, которая равна 1 ч.
Некоторые строки с данными для отдельных станций могут быть выделены курсивом. Это означает, что фактические данные отсутствуют по различным причинам, а приведенные значения являются расчетными модельными данными для данного пункта наблюдений.
Смотрите также архив погоды в соседних городах и на ближайших метеорологических станциях:
Партнеры нашего сайта:      
Пояснения к столбцам:
  • Ветер - указаны скорость ветра в м/с - средняя за 10 мин, порывы в срок и между сроками (в фигурных скобках) и направление, откуда дует ветер: С - северный,
  • СВ - северо-восточный, В - восточный, ЮВ - юго-восточный, Ю - южный, ЮЗ - юго-западный, З - западный, СЗ - северо-западный.
  • Видимость - горизонтальная дальность видимости в метрах или километрах. При видимости от 1 до 10 км при отсутствии осадков обычно наблюдается дымка, при ухудшении видимости до 1 км и менее - туман. В сухую погоду видимость может ухудшаться дымом, пылью или мглою.
  • Явления - указаны атмосферные явления, наблюдавшиеся в срок или в последний час перед сроком; фигурными скобками обозначены явления, наблюдавшиеся между сроками (за 1-3 часа до срока); квадратными скобками обозначены град или гололедные отложения с указанием их диаметра в мм.
  • Облачность - указаны через наклонную черту общая и нижняя облачность в баллах и высота нижней границы облаков в метрах; квадратными скобками обозначены формы облаков: Ci - перистые, Cs - перисто-слоистые, Cc - перисто-кучевые, Ac - высококучевые, As - высокослоистые, Sc - слоисто-кучевые, Ns - слоисто-дождевые, Cu - кучевые, Cb - кучево-дождевые. Подробнее классификацию облаков см. в Атласе облаков (PDF).
  • T - Температура воздуха - температура, измеренная на высоте 2 м над землей.
  • Td - Температура точки росы - температура, при понижении до которой содержащийся в воздухе водяной пар достигнет насыщения.
  • f - Относительная влажность воздуха - влажноcть воздуха, измеренная на высоте 2 м над землей.
  • Te - Эффективная температура - температура, которую ощущает одетый по сезону человек в тени. Характеристика душности погоды. При расчете учитывается влияние влажности воздуха и скорости ветра на теплоощущения человека.
  • Tes - Эффективная температура на солнце - температура, которую ощущает человек, с поправкой на солнечный нагрев. Характеристика знойности погоды. Зависит от высоты солнца над горизонтом, облачности и скорости ветра. Ночью, в пасмурную погоду, а также при ветре 12 м/с и более поправка равна нулю.
  • P - Атмосферное давление - приведенное к уровню моря атмосферное давление.
  • Po - Атмосферное давление - измеренное на уровне метеостанции атмосферное давление.
  • Tmin - Минимальная температура - минимум температуры воздуха на высоте 2 м над землей.
  • Tmax - Максимальная температура - максимум температуры воздуха на высоте 2 м над землей.
  • R - Количество осадков - Количество выпавших осадков за период времени, мм. При наведении курсора мыши на число - период времени, за который выпало указанное количество осадков.
  • R24 - Количество осадков - Количество выпавших осадков за 24 часа, мм.
  • S - Снежный покров - Высота снежного покрова, см. При наведении курсора мыши на число - состояние снежного покрова и степень покрытия местности в баллах.